Regional Weather Roundup
Issued by NWS

Home | Current Version | Previous Version | Graphics & Text | Print | Product List | Glossary On
Versions: 1 2 3 4 5 6 7 8 9 10 11 12 13 14 15 16 17 18 19 20 21 22 23 24 25 26 27 28 29 30 31 32 33 34 35 36 37 38 39 40 41 42 43 44 45 46 47 48 49 50
000
ASUS43 KLMK 300210
RWRKY
KENTUCKY REGIONAL WEATHER ROUNDUP
NATIONAL WEATHER SERVICE LOUISVILLE KY
1000 PM EDT MON JUN 29 2015

NOTE "FAIR" INDICATES FEW OR NO CLOUDS BELOW 12,000 FEET
WITH NO SIGNIFICANT WEATHER AND/OR OBSTRUCTIONS TO VISIBILITY.

KYZ001>023-026-027-061>063-070>075-300300-
WESTERN AND SOUTH CENTRAL KENTUCKY

CITY           SKY/WX    TMP DP  RH WIND       PRES   REMARKS
PADUCAH        CLEAR     76  67  73 CALM      29.85R
HENDERSON      CLEAR     70  64  83 CALM      29.85R
OWENSBORO      CLEAR     74  66  75 NW5       29.85F
HOPKINSVILLE   MOCLDY    75  71  86 S3        29.87S
BOWLING GREEN  CLEAR     75  69  81 CALM      29.87R
GLASGOW        MOCLDY    69  69  98 CALM      29.89R
$$

KYZ024-025-028>034-038-045-046-053-300300-
NORTH CENTRAL KENTUCKY

CITY           SKY/WX    TMP DP  RH WIND       PRES   REMARKS
LOUISVILLE/SDF PTCLDY    75  64  68 W8        29.84R
LOUISVILLE/LOU CLEAR     75  63  66 W8        29.84S
FORT KNOX      CLEAR     71  63  78 W5        29.84S
$$

KYZ035>037-039>044-047>052-055>060-089>105-300300-
NORTHEAST KENTUCKY

CITY           SKY/WX    TMP DP  RH WIND       PRES   REMARKS
LEXINGTON      MOCLDY    69  66  90 S8        29.86R
COVINGTON      PTCLDY    70  65  84 SW3       29.83S
FRANKFORT      PTCLDY    71  68  90 SW3       29.84R
$$

KYZ054-064>069-076>088-106>120-300300-
SOUTHEAST KENTUCKY

CITY           SKY/WX    TMP DP  RH WIND       PRES   REMARKS
JACKSON        CLOUDY    67  65  93 CALM      29.90R
LONDON         LGT RAIN  70  65  84 S5        29.91R
SOMERSET       CLOUDY    66  64  94 SW5       29.91R
MIDDLESBORO    MOCLDY    66  65  97 CALM      29.94R
MONTICELLO     CLOUDY    68  68 100 CALM      29.93F
$$



USA.gov is the U.S. government's official web portal to all federal, state and local government web resources and services.